Regional Weather Roundup
Issued by NWS

Home | Current Version | Previous Version | Graphics & Text | Print | Product List | Glossary On
Versions: 1 2 3 4 5 6 7 8 9 10 11 12 13 14 15 16 17 18 19 20 21 22 23 24 25 26 27 28 29 30 31 32 33 34 35 36 37 38 39 40 41 42 43 44 45 46 47 48 49 50
000
ASUS43 KMKX 250911
RWRWI

WISCONSIN REGIONAL WEATHER ROUNDUP
NATIONAL WEATHER SERVICE MILWAUKEE/SULLIVAN WI
300 AM CST THU DEC 25 2014

NOTE: "FAIR" INDICATES FEW OR NO CLOUDS BELOW 12,000 FEET WITH NO
SIGNIFICANT WEATHER AND/OR OBSTRUCTIONS TO VISIBILITY.

WIZ001-002-006>008-014>016-023>028-251000-
NORTHWEST WISCONSIN

CITY           SKY/WX    TMP DP  RH WIND       PRES   REMARKS
SUPERIOR ARPT  CLOUDY    32  29  87 SW8       29.54S WCI  25
ASHLAND        CLOUDY    32  29  88 SW10      29.55R WCI  24
HAYWARD        CLOUDY    32  27  81 SW8       29.56R WCI  25
SIREN          CLOUDY    31  29  93 SW12      29.59R WCI  22
CUMBERLAND     CLOUDY    30  28  93 SW10      29.59R WCI  21
RICE LAKE      CLOUDY    31  28  89 SW9G16    29.61S WCI  23
CHETEK         CLOUDY    31  28  88 SW3       29.61R
LADYSMITH      CLOUDY    33  29  87 SW14      29.59S WCI  23
EAU CLAIRE     CLOUDY    32  27  81 SW13      29.63R WCI  22
MENOMONIE      CLOUDY    32  29  88 SW9       29.63R WCI  24
NEW RICHMOND   CLOUDY    31  29  93 SW12G18   29.62R WCI  22
OSCEOLA        CLOUDY    32  32  99 SW7       29.64R WCI  26
$$

WIZ003>005-009-010-017-018-251000-
NORTH CENTRAL WISCONSIN

CITY           SKY/WX    TMP DP  RH WIND       PRES   REMARKS
MANITOWISH WTR CLOUDY    29  29  98 W15       29.53R WCI  18
ARBOR VITAE    CLOUDY    32  29  90 W8        29.53R WCI  25
WOODRUFF       CLOUDY    32  29  90 W8        29.53R WCI  25
RHINELANDER    CLOUDY    29  26  89 W14       29.55R WCI  18
EAGLE RIVER    CLOUDY    30  30  98 W13       29.52R WCI  20
LAND O LAKES   LGT SNOW  31  30  95 W7        29.52R WCI  24
PHILLIPS       CLOUDY    30  27  88 SW8       29.55R WCI  23
TOMAHAWK       CLOUDY    30  27  89 CALM      29.57R
MEDFORD        CLOUDY    31  28  91 SW9       29.58R WCI  23
MERRILL        MOCLDY    29  28  94 W6        29.58R WCI  23
$$

WIZ029-030-035-036-043>047-251000-
CENTRAL WISCONSIN

CITY           SKY/WX    TMP DP  RH WIND       PRES   REMARKS
WAUSAU         MOCLDY    31  27  85 W7        29.58R WCI  24
MOSINEE        CLOUDY    32  30  93 SW8       29.60R WCI  25
MARSHFIELD     CLOUDY    32  29  88 W13       29.61R WCI  22
STEVENS POINT  CLOUDY    31  27  83 SW6       29.62R WCI  25
WAUPACA        CLEAR     32  29  89 W8        29.63R WCI  25
WAUTOMA        CLOUDY    34  31  89 W7        29.66R WCI  28
WISC RAPIDS    CLOUDY    33  27  78 SW10      29.65R WCI  25
CAMP DOUGLAS   CLOUDY    33  33 100 W15       29.67R WCI  23
$$

WIZ011>013-019>022-031-037>040-048>050-251000-
NORTHEAST WISCONSIN

CITY           SKY/WX    TMP DP  RH WIND       PRES   REMARKS
ANTIGO         CLOUDY    30  28  91 W13G20    29.57R WCI  20
SHAWANO        PTCLDY    33  29  88 SW6       29.61R WCI  27
OCONTO         CLOUDY    32  31  96 W6        29.58R WCI  26
STURGEON BAY   MOCLDY    32  27  80 W10       29.59R WCI  24
GREEN BAY      CLEAR     33  30  88 W12       29.61R WCI  24
MANITOWOC      PTCLDY    34  31  88 W10       29.63R WCI  26
APPLETON       CLEAR     32  30  93 W8        29.63R WCI  25
CLINTONVILLE   CLEAR     32  30  93 W7        29.61R WCI  26
OSHKOSH        CLOUDY    34  29  82 W10       29.64R WCI  26
$$

WIZ032>034-041-042-053>061-251000-
SOUTHWEST WISCONSIN

CITY           SKY/WX    TMP DP  RH WIND       PRES   REMARKS
LA CROSSE      CLOUDY    34  28  79 SW7       29.69R WCI  28
SPARTA         CLOUDY    32  28  85 SW6       29.69R WCI  27
VIROQUA        CLOUDY    31  31 100 SW10      29.68R WCI  22
BOSCOBEL       CLOUDY    34  27  75 SW9G20    29.74R WCI  27
PRAIRIE DU CHI CLOUDY    33  27  79 W9G17     29.74R WCI  25
PLATTEVILLE    CLOUDY    32  30  91 SW14      29.74R WCI  22
$$

WIZ056-057-062-063-064-067-068-251000-
SOUTH CENTRAL WISCONSIN

CITY           SKY/WX    TMP DP  RH WIND       PRES   REMARKS
REEDSBURG      CLOUDY    33  29  86 W10       29.69R WCI  25
BARABOO/DELLS  CLOUDY    33  29  85 W10       29.68R WCI  25
LONE ROCK      CLOUDY    37  28  70 W10       29.72R WCI  30
MINERAL POINT  CLOUDY    32  30  93 SW12      29.71R WCI  23
MADISON        CLOUDY    34  28  79 VRB5      29.70R WCI  30
MIDDLETON      CLOUDY    35  30  81 W10       29.71R WCI  27
WATERTOWN      CLOUDY    33  30  87 W9G16     29.70R WCI  26
MONROE         CLOUDY    32  30  93 W17G24    29.73R WCI  21
JANESVILLE     CLOUDY    36  30  80 W9        29.73R WCI  29
$$

WIZ051-052-058>065-066-070>072-251000-
SOUTHEAST WISCONSIN

CITY           SKY/WX    TMP DP  RH WIND       PRES   REMARKS
MILWAUKEE      MOCLDY    36  29  75 W12       29.70R WCI  28
WAUKESHA       CLOUDY    32  28  86 W10       29.71R WCI  24
MILWAUKEE/TIMM CLOUDY    34  28  80 W15       29.70R WCI  24
RACINE         CLOUDY    36  30  79 W10       29.72R WCI  28
BURLINGTON     CLOUDY    33  29  85 W12       29.72R WCI  24
KENOSHA        CLOUDY    36  31  82 W16       29.71R WCI  26
FOND DU LAC    CLOUDY    34  29  82 W8        29.66R WCI  27
SHEBOYGAN      CLOUDY    34  30  85 W12       29.65R WCI  25
WEST BEND      CLOUDY    34  30  86 W10       29.66R WCI  26
JUNEAU         CLOUDY    33  30  88 SW10      29.69R WCI  25
$$

LSZ147-162-251000-
LAKE SUPERIOR

STATION/POSITION TIME  TEMP    WIND        PRES    WAVE
                       AIR SEA DIR/SP/G            HT/PER
                 (UTC) (F)     (DEG/KT/KT) (MB)    (FT/S)
DEVILS ISLAND    0900   34     230/ 16/ 19 1000.3R
PORT WING        0800   33     220/  6/ 10 1000.3R
SAXON HARBOR     0800   34     230/  1/ 10 1000.3R
$$

LMZ867-665-643>646-251000-
LAKE MICHIGAN

STATION/POSITION TIME  TEMP    WIND        PRES    WAVE
                       AIR SEA DIR/SP/G            HT/PER
                 (UTC) (F)     (DEG/KT/KT) (MB)    (FT/S)
CHAMBERS ISLAND  0800   33     220/  7/ 12 1000.7R
NORTHPORT PIER   0800   34     270/  7/ 11 1000.0R
SISTER BAY       0828          280/ 13/ 15   N/A
ALGOMA LAKESHORE 0815          290/  8/ 11   N/A
KEWAUNEE LAKESHO 0800   34     280/ 12/ 15 1000.9R
SHEBOYGAN LAKESH 0900   35 37  270/ 10/ 12 1004.7R
PORT WASHINGTON  0800   36     280/ 10/ 14 1004.7
MILWAUKEE LAKESH 0800   37     280/ 13/ 19   N/A
KENOSHA   LAKESH 0900   37     270/  9/ 19 1006.8R
$$

TC  - TEMPERATURE IN CELSIUS
VSB - VISIBILITY IN STATUTE MILES
WCI - WIND CHILL INDEX
HX  - HEAT INDEX




USA.gov is the U.S. government's official web portal to all federal, state and local government web resources and services.